User: anonymous   Login
Location: Norwich
(52.6280°N, 1.3030°E)
Time: 02:32:21
(UTC+01:00)
Language:

ATLAS 5 CENTAUR R/B - Orbit

View from above orbital plane
View from above orbital plane
View from above satellite
View from above satellite

Ground track
Ground track

The orbit data is extracted from the following two-line orbital elements,

1 32379U 07060B   15199.85569624 0.00006500  00000-0  14235-2 0    08
2 32379  60.7597 209.6143 5210807 226.4102  76.4399  5.25465580    03
Epoch (UTC): 18 July 2015 20:32:12
Eccentricity: 0.5210807
inclination: 60.7597°
perigee height: 315 km
apogee height: 14880 km
right ascension of ascending node: 209.6143°
argument of perigee: 226.4102°
revolutions per day: 5.25465580
mean anomaly at epoch: 76.4399°
orbit number at epoch: 0

The dashed part of the orbit path shows where the satellite is in the earth's shadow,  

DLR